Location: Arlington
(40.6323°N, 74.1651°W)
Time: 01:38:37
(UTC+00:00)

Cosmos 1606 - Pass Details

Date: 22 November 2019
Orbit: 504 x 528 km, 82.5° (Epoch: 13 December)

Event Time Altitude Azimuth Distance (km) Brightness Sun altitude
Rises 22:54:01 0° 182° (S) 2,597 6.5 -15.1°
Reaches altitude 10° 22:56:08 10° 181° (S) 1,714 5.5 -15.4°
Maximum altitude 22:59:52 74° 96° (E) 529 2.5 -16.1°
Enters shadow 23:03:33 11° 11° (NNE) 1,693 5.1 -16.8°
